Location: ????????
(55.0559°N, 39.1270°E)
Time: 08:49:25
(UTC+00:00)

Cosmos 1371 Rocket - Pass Details

Date: 15 November 2025
Orbit: 749 x 785 km, 74.0° (Epoch: 14 December)

Event Time Altitude Azimuth Distance (km) Brightness Sun altitude
Rises 02:20:46 0° 195° (SSW) 3,240 7.1 -21.8°
Reaches altitude 10° 02:23:09 10° 193° (SSW) 2,322 6.4 -21.5°
Maximum altitude 02:28:22 66° 112° (ESE) 855 4.4 -20.7°
Drops below altitude 10° 02:33:41 10° 31° (NNE) 2,355 6.9 -20.0°
Sets 02:36:06 0° 29° (NNE) 3,289 7.6 -19.6°
